1511838000.07,12334,7.19,72834.3,-9.57,-38.67,-38.85,0,*50
1511838001.32,12335,7.19,72836.0,-9.55,-38.67,-38.79,0,*50
1511838002.58,12336,7.19,72836.3,-9.57,-38.61,-38.67,0,*58
1511838003.83,12337,7.19,72834.5,-9.57,-38.61,-38.67,0,*59
1511838005.08,12338,7.19,72836.5,-9.57,-38.61,-38.67,0,*56
1511838006.31,12339,7.19,72830.8,-9.55,-38.61,-38.67,0,*55
1511838007.57,12340,7.19,72836.0,-9.57,-38.61,-38.79,0,*56
1511838008.82,12341,7.19,72834.5,-9.57,-38.61,-38.67,0,*58
1511838010.11,12342,7.19,72836.0,-9.57,-38.49,-38.79,0,*5E
1511838011.36,12343,7.19,72836.5,-9.55,-38.67,-38.79,0,*51
1511838012.61,12344,7.19,72836.8,-9.55,-38.67,-38.79,0,*56
1511838013.84,12345,7.19,72832.5,-9.55,-38.61,-38.67,0,*5E
1511838015.09,12346,7.19,72838.5,-9.57,-38.61,-38.67,0,*5F
1511838016.37,12347,7.19,72836.0,-9.57,-38.67,-38.79,0,*57
1511838017.65,12348,7.19,72832.5,-9.57,-38.49,-38.79,0,*54
1511838018.9,12349,7.19,72836.3,-9.57,-38.61,-38.67,0,*50
1511838020.13,12350,7.19,72836.5,-9.55,-38.61,-38.67,0,*5A
1511838021.39,12351,7.19,72838.0,-9.57,-38.61,-38.79,0,*56
1511838022.64,12352,7.19,72836.0,-9.57,-38.67,-38.85,0,*50
1511838023.92,12353,7.19,72838.8,-9.57,-38.67,-38.79,0,*52
1511838025.17,12354,7.25,72838.5,-9.57,-38.67,-38.85,0,*56
1511838026.4,12355,7.19,72832.5,-9.57,-38.61,-38.85,0,*51
1511838027.62,12356,7.25,72842.8,-9.57,-38.61,-38.97,0,*51
1511838028.87,12357,7.19,72838.0,-9.57,-38.67,-38.85,0,*55
1511838030.11,12358,7.19,72836.5,-9.55,-38.61,-38.79,0,*5D
1511838031.36,12359,7.19,72836.3,-9.57,-38.61,-38.79,0,*5E
1511838032.61,12360,7.19,72838.0,-9.57,-38.61,-38.67,0,*5B
1511838033.84,12361,7.19,72840.0,-9.57,-38.61,-38.61,0,*5C
1511838035.1,12362,7.19,72838.8,-9.57,-38.49,-38.61,0,*55
1511838036.38,12363,7.25,72842.8,-9.57,-38.67,-38.79,0,*51
1511838037.63,12364,7.25,72840.5,-9.57,-38.61,-38.79,0,*50
1511838038.89,12365,7.19,72838.8,-9.57,-38.61,-38.67,0,*5E
1511838040.14,12366,7.19,72840.8,-9.57,-38.61,-38.67,0,*5D
1511838041.4,12367,7.19,72838.5,-9.57,-38.61,-38.67,0,*5C
1511838042.65,12368,7.19,72836.8,-9.57,-38.61,-38.67,0,*53
1511838043.9,12369,7.19,72838.0,-9.57,-38.61,-38.67,0,*52
1511838045.16,12370,7.19,72834.3,-9.57,-38.61,-38.79,0,*55
1511838046.41,12371,7.19,72836.5,-9.57,-38.61,-38.79,0,*54
1511838047.66,12372,7.19,72836.8,-9.57,-38.67,-38.97,0,*51
1511838048.89,12373,7.19,72836.5,-9.57,-38.61,-38.85,0,*55
1511838050.14,12374,7.19,72834.3,-9.57,-38.67,-38.85,0,*54
1511838051.42,12375,7.19,72838.5,-9.57,-38.79,-38.79,0,*59
1511838052.68,12376,7.19,72838.5,-9.57,-38.61,-38.79,0,*53
1511838053.91,12377,7.19,72838.3,-9.57,-38.61,-38.85,0,*51
1511838055.14,12378,7.19,72838.5,-9.59,-38.85,-38.91,0,*5F
1511838056.39,12379,7.19,72838.5,-9.59,-38.91,-39.03,0,*51
1511838057.63,12380,7.19,72834.8,-9.59,-38.85,-38.91,0,*58
1511838058.85,12381,7.19,72836.5,-9.59,-38.85,-39.03,0,*53
1511838060.1,12382,7.19,72836.5,-9.59,-38.67,-38.91,0,*56
1511838061.36,12383,7.19,72838.5,-9.61,-38.85,-38.91,0,*50
1511838062.59,12384,7.19,72832.8,-9.59,-38.73,-39.03,0,*5F
1511838063.81,12385,7.19,72838.0,-9.59,-38.73,-38.91,0,*54
1511838065.06,12386,7.19,72842.5,-9.59,-38.67,-38.91,0,*52
1511838066.32,12387,7.19,72836.0,-9.61,-38.73,-38.91,0,*5D
1511838067.51,12388,7.19,72836.0,-9.59,-38.73,-38.73,0,*55
1511838068.76,12389,7.19,72836.8,-9.61,-38.67,-38.73,0,*5A
1511838069.98,12390,7.19,72838.8,-9.59,-38.67,-38.85,0,*50
1511838071.18,12391,7.19,72838.0,-9.59,-38.73,-38.73,0,*5D
1511838072.41,12392,7.19,72838.5,-9.59,-38.67,-38.85,0,*52
1511838073.68,12393,7.19,72838.5,-9.61,-38.67,-39.03,0,*57
1511838074.91,12394,7.19,72838.8,-9.61,-38.73,-38.85,0,*5A
1511838076.16,12395,7.19,72836.0,-9.61,-38.73,-39.03,0,*54
1511838077.41,12396,7.19,72836.8,-9.61,-38.67,-38.85,0,*5D
1511838078.64,12397,7.19,72836.5,-9.59,-38.67,-38.85,0,*57
1511838079.87,12398,7.19,72834.8,-9.61,-38.73,-38.85,0,*56
1511838081.1,12399,7.19,72834.8,-9.61,-38.73,-38.85,0,*57
1511838082.3,12400,7.19,72840.0,-9.59,-38.73,-38.85,0,*5B
1511838083.56,12401,7.25,72842.3,-9.61,-38.73,-38.91,0,*54
1511838084.81,12402,7.19,72836.8,-9.61,-38.73,-38.91,0,*57
1511838086.06,12403,7.19,72838.0,-9.61,-38.73,-39.03,0,*5C
1511838087.29,12404,7.19,72836.5,-9.61,-38.73,-38.85,0,*54
1511838088.53,12405,7.19,72836.3,-9.61,-38.67,-38.73,0,*59
1511838089.76,12406,7.19,72836.3,-9.59,-38.67,-38.85,0,*58
1511838091.01,12407,7.19,72838.3,-9.61,-38.67,-38.73,0,*5B
1511838092.28,12408,7.19,72836.8,-9.61,-38.67,-38.91,0,*58
1511838093.53,12409,7.19,72836.8,-9.61,-38.67,-38.73,0,*55
1511838094.77,12410,7.19,72836.0,-9.61,-38.85,-38.85,0,*58
1511838096.02,12411,7.19,72838.3,-9.61,-38.73,-39.03,0,*5F
1511838097.27,12412,7.19,72834.8,-9.61,-38.67,-38.73,0,*5F
1511838098.49,12413,7.19,72836.3,-9.59,-38.67,-38.85,0,*5C
1511838099.74,12414,7.19,72836.3,-9.61,-38.67,-38.85,0,*50
1511838100.99,12415,7.25,72842.0,-9.61,-38.67,-38.73,0,*58
1511838102.24,12416,7.19,72832.8,-9.61,-38.67,-38.73,0,*5B
1511838103.49,12417,7.19,72834.3,-9.63,-38.67,-38.91,0,*54
1511838104.74,12418,7.19,72836.0,-9.61,-38.73,-38.91,0,*5C
1511838105.99,12419,7.19,72836.0,-9.59,-38.67,-38.91,0,*53
1511838107.22,12420,7.19,72836.5,-9.59,-38.67,-38.85,0,*5C
1511838108.45,12421,7.19,72836.5,-9.61,-38.73,-38.85,0,*53
1511838109.68,12422,7.19,72838.0,-9.61,-38.73,-38.85,0,*50
1511838110.92,12423,7.19,72838.8,-9.61,-38.67,-38.73,0,*5D
1511838112.15,12424,7.19,72834.3,-9.63,-38.73,-38.91,0,*51
1511838113.38,12425,7.19,72836.5,-9.61,-38.73,-38.85,0,*57
1511838114.63,12426,7.19,72834.5,-9.61,-38.67,-38.85,0,*51
1511838115.86,12427,7.19,72838.8,-9.61,-38.55,-38.73,0,*58
1511838117.1,12428,7.19,72836.8,-9.61,-38.67,-38.73,0,*56
1511838118.35,12429,7.19,72836.0,-9.61,-38.67,-38.73,0,*57
1511838119.6,12430,7.19,72838.8,-9.61,-38.67,-38.85,0,*56
1511838120.83,12431,7.19,72836.8,-9.61,-38.73,-38.73,0,*5B
1511838122.08,12432,7.19,72834.8,-9.61,-38.67,-38.85,0,*54
1511838123.33,12433,7.19,72836.3,-9.61,-38.73,-38.91,0,*55
1511838124.59,12434,7.19,72832.5,-9.61,-38.85,-39.03,0,*51
1511838125.84,12435,7.19,72838.3,-9.59,-38.67,-38.91,0,*5D
1511838127.09,12436,7.19,72838.3,-9.61,-38.67,-38.73,0,*59
1511838128.34,12437,7.19,72836.5,-9.61,-38.73,-39.03,0,*5B
1511838129.6,12438,7.19,72832.8,-9.61,-38.85,-38.91,0,*57
1511838130.85,12439,7.19,72838.5,-9.61,-38.85,-39.03,0,*5C
1511838132.11,12440,7.19,72836.3,-9.61,-38.85,-38.91,0,*58
1511838133.34,12441,7.19,72834.8,-9.63,-38.79,-38.97,0,*5E
1511838134.56,12442,7.19,72838.5,-9.65,-38.73,-38.97,0,*51
1511838135.76,12443,7.19,72838.8,-9.63,-38.73,-38.73,0,*5C
1511838136.98,12444,7.19,72836.8,-9.63,-38.73,-38.79,0,*51
1511838138.21,12445,7.19,72836.8,-9.63,-38.61,-38.79,0,*53
1511838139.42,12446,7.19,72838.0,-9.63,-38.55,-38.55,0,*59
1511838140.67,12447,7.19,72838.3,-9.61,-38.55,-38.67,0,*5B
1511838141.93,12448,7.19,72840.0,-9.61,-38.55,-38.67,0,*54
1511838143.15,12449,7.19,72836.5,-9.63,-38.61,-38.79,0,*5F
1511838144.38,12450,7.19,72836.3,-9.63,-38.61,-38.79,0,*57
1511838145.61,12451,7.19,72834.3,-9.63,-38.61,-38.79,0,*56
1511838146.87,12452,7.19,72836.5,-9.65,-38.61,-38.79,0,*53
1511838148.07,12453,7.19,72838.0,-9.63,-38.73,-38.97,0,*57
1511838149.26,12454,7.19,72834.5,-9.63,-38.73,-38.97,0,*50
1511838150.48,12455,7.19,72838.8,-9.61,-38.73,-38.73,0,*59
1511838151.71,12456,7.19,72836.3,-9.61,-38.55,-38.73,0,*5E
1511838152.96,12457,7.19,72832.3,-9.61,-38.73,-38.91,0,*57
1511838154.22,12458,7.19,72832.8,-9.61,-38.85,-39.03,0,*5B
1511838155.47,12459,7.19,72836.0,-9.61,-38.73,-39.03,0,*53
1511838156.73,12460,7.19,72834.3,-9.61,-38.85,-39.03,0,*50
1511838157.95,12461,7.19,72828.8,-9.63,-38.91,-39.09,0,*5C
1511838159.21,12462,7.19,72828.8,-9.63,-39.15,-39.29,0,*50
1511838160.45,12463,7.19,72826.8,-9.65,-39.29,-39.35,0,*55
1511838161.67,12464,7.19,72832.0,-9.65,-39.35,-39.35,0,*5F
1511838162.86,12465,7.19,72830.5,-9.63,-39.35,-39.47,0,*5D
1511838164.06,12466,7.19,72832.5,-9.63,-39.35,-39.47,0,*5E
1511838165.27,12467,7.19,72834.3,-9.63,-39.53,-39.47,0,*5F
1511838166.52,12468,7.19,72834.3,-9.65,-39.29,-39.47,0,*5B
1511838167.74,12469,7.19,72832.3,-9.65,-39.35,-39.47,0,*57
1511838168.96,12470,7.19,72834.8,-9.71,-39.35,-39.59,0,*55
1511838170.22,12471,7.19,72830.5,-9.71,-39.41,-39.59,0,*57
1511838171.46,12472,7.19,72834.0,-9.71,-39.53,-39.53,0,*5D
1511838172.71,12473,7.19,72830.0,-9.67,-39.03,-39.15,0,*5C
1511838173.96,12474,7.19,72834.8,-9.67,-39.23,-39.23,0,*5C
1511838175.21,12475,7.19,72832.0,-9.67,-39.15,-39.41,0,*5C
1511838176.43,12476,7.19,72832.0,-9.71,-39.35,-39.41,0,*5A
1511838177.68,12477,7.19,72834.5,-9.67,-39.23,-39.41,0,*5B
1511838178.9,12478,7.19,72834.0,-9.71,-38.97,-39.15,0,*5C
1511838180.15,12479,7.19,72832.8,-9.71,-39.03,-39.15,0,*51
1511838181.37,12480,7.19,72834.5,-9.67,-39.23,-39.35,0,*50
1511838182.59,12481,7.19,72826.8,-9.71,-39.15,-39.35,0,*53
1511838183.81,12482,7.19,72832.0,-9.71,-39.23,-39.35,0,*55
1511838185.04,12483,7.19,72834.0,-9.75,-39.09,-39.29,0,*55
1511838186.3,12484,7.19,72830.8,-9.73,-39.09,-39.29,0,*54
1511838187.55,12485,7.19,72832.5,-9.73,-39.09,-39.29,0,*55
1511838188.81,12486,7.19,72834.5,-9.73,-39.09,-39.29,0,*56
1511838190.08,12487,7.19,72834.8,-9.73,-38.91,-39.23,0,*5D
1511838191.34,12488,7.19,72832.0,-9.73,-39.09,-39.29,0,*58
1511838192.59,12489,7.19,72830.0,-9.73,-39.09,-39.29,0,*59
1511838193.87,12490,7.19,72830.0,-9.73,-39.29,-39.41,0,*5D
1511838195.11,12491,7.19,72832.3,-9.75,-39.29,-39.29,0,*54
1511838196.34,12492,7.19,72834.5,-9.75,-39.09,-39.23,0,*5F
1511838197.58,12493,7.19,72834.3,-9.75,-39.03,-39.09,0,*5C
1511838198.83,12494,7.19,72830.5,-9.75,-38.91,-39.23,0,*59
1511838200.08,12495,7.19,72830.0,-9.73,-39.09,-39.23,0,*5E
1511838201.31,12496,7.19,72830.5,-9.75,-39.09,-39.23,0,*5B
1511838202.52,12497,7.19,72830.3,-9.75,-39.09,-39.09,0,*52
1511838203.77,12498,7.19,72832.5,-9.75,-39.23,-39.29,0,*57
1511838205.0,12499,7.19,72834.3,-9.75,-38.91,-39.09,0,*5C
1511838206.25,12500,7.19,72832.8,-9.75,-39.03,-39.23,0,*5F
1511838207.48,12501,7.19,72832.8,-9.75,-38.91,-39.09,0,*5C
1511838208.73,12502,7.19,72832.5,-9.75,-39.03,-39.23,0,*5D
1511838209.96,12503,7.19,72836.3,-9.75,-38.91,-39.09,0,*5E
1511838211.21,12504,7.19,72830.5,-9.75,-39.03,-39.23,0,*5B
1511838212.46,12505,7.19,72832.8,-9.75,-39.03,-39.23,0,*5A
1511838213.69,12506,7.19,72830.8,-9.75,-39.09,-39.29,0,*59
1511838214.93,12507,7.19,72832.0,-9.75,-39.09,-39.29,0,*58
1511838216.19,12508,7.19,72834.5,-9.77,-39.09,-39.29,0,*55
1511838217.44,12509,7.19,72832.3,-9.77,-38.91,-38.97,0,*50
1511838218.7,12510,7.19,72834.5,-9.77,-38.91,-38.97,0,*58
1511838219.96,12511,7.19,72834.5,-9.77,-39.09,-39.29,0,*5D
1511838221.19,12512,7.19,72832.5,-9.77,-38.97,-38.97,0,*5C
1511838222.42,12513,7.19,72832.3,-9.77,-38.97,-39.09,0,*5B
1511838223.68,12514,7.19,72834.0,-9.77,-38.91,-39.09,0,*5A
1511838224.93,12515,7.19,72834.3,-9.77,-38.97,-39.15,0,*50
1511838226.22,12516,7.19,72828.5,-9.77,-38.91,-39.15,0,*55
1511838227.46,12517,7.19,72828.5,-9.77,-39.09,-39.09,0,*59
1511838228.69,12518,7.19,72832.3,-9.77,-38.97,-39.09,0,*50
1511838229.97,12519,7.19,72828.0,-9.77,-38.91,-39.15,0,*5A
1511838231.18,12520,7.19,72832.3,-9.79,-38.97,-39.09,0,*55
1511838232.43,12521,7.19,72832.3,-9.79,-39.15,-39.29,0,*5D
1511838233.72,12522,7.19,72832.3,-9.77,-39.15,-39.29,0,*50
1511838234.98,12523,7.19,72830.5,-9.79,-39.15,-39.15,0,*50
1511838236.24,12524,7.19,72828.8,-9.77,-39.09,-39.29,0,*5B
1511838237.47,12525,7.19,72832.0,-9.79,-38.91,-38.97,0,*50
1511838238.7,12526,7.19,72834.5,-9.79,-38.91,-39.09,0,*55
1511838239.94,12527,7.19,72834.3,-9.79,-39.09,-39.15,0,*59
1511838241.19,12528,7.19,72830.0,-9.79,-39.15,-39.29,0,*54
1511838242.45,12529,7.19,72832.3,-9.79,-39.15,-39.29,0,*55
1511838243.68,12530,7.19,72830.3,-9.79,-39.15,-39.47,0,*55
1511838244.91,12531,7.19,72834.5,-9.79,-38.91,-39.09,0,*53
1511838246.13,12532,7.19,72834.5,-9.79,-39.29,-39.35,0,*5D
1511838247.35,12533,7.19,72832.3,-9.79,-39.29,-39.47,0,*59
1511838248.55,12534,7.19,72830.3,-9.79,-39.47,-39.47,0,*56
1511838249.77,12535,7.19,72832.8,-9.81,-39.23,-39.35,0,*57
1511838250.99,12536,7.19,72832.0,-9.81,-39.23,-39.35,0,*54
1511838252.25,12537,7.19,72834.0,-9.81,-39.15,-39.23,0,*57
1511838253.5,12538,7.19,72832.8,-9.83,-39.15,-39.35,0,*5D
1511838254.78,12539,7.19,72832.5,-9.83,-39.15,-39.23,0,*5B
1511838256.02,12540,7.19,72832.0,-9.81,-39.03,-39.23,0,*50
1511838257.27,12541,7.19,72832.5,-9.81,-39.03,-39.23,0,*51
1511838258.52,12542,7.19,72834.5,-9.83,-39.15,-39.35,0,*50
1511838259.79,12543,7.19,72832.0,-9.83,-39.23,-39.53,0,*54
1511838260.99,12544,7.19,72830.5,-9.81,-39.35,-39.35,0,*56
1511838262.23,12545,7.19,72830.3,-9.83,-39.23,-39.35,0,*52
1511838263.5,12546,7.19,72832.3,-9.83,-39.23,-39.41,0,*52
1511838264.75,12547,7.19,72830.3,-9.83,-39.35,-39.53,0,*57
1511838265.99,12548,7.19,72834.5,-9.83,-39.35,-39.41,0,*5B
1511838267.24,12549,7.19,72834.0,-9.83,-39.35,-39.53,0,*59
1511838268.51,12550,7.19,72834.3,-9.83,-39.41,-39.53,0,*52
1511838269.75,12551,7.19,72834.3,-9.85,-39.47,-39.59,0,*59
1511838270.96,12552,7.19,72832.3,-9.85,-39.47,-39.65,0,*55
1511838272.22,12553,7.19,72830.5,-9.85,-39.41,-39.59,0,*5D
1511838273.45,12554,7.19,72828.3,-9.87,-39.65,-39.65,0,*51
1511838274.74,12555,7.19,72828.0,-9.87,-39.59,-39.79,0,*52
1511838275.98,12556,7.19,72832.5,-9.89,-39.65,-39.71,0,*58
1511838277.21,12557,7.19,72834.8,-9.89,-39.71,-39.85,0,*57
1511838278.45,12558,7.19,72830.5,-9.89,-39.65,-39.71,0,*56
1511838279.71,12559,7.19,72832.8,-9.89,-39.15,-39.29,0,*5D
1511838280.93,12560,7.19,72832.5,-9.89,-39.29,-39.47,0,*50
1511838282.16,12561,7.19,72832.5,-9.91,-39.35,-39.65,0,*55
1511838283.39,12562,7.19,72834.3,-9.89,-39.29,-39.47,0,*52
1511838284.64,12563,7.19,72832.3,-9.91,-39.29,-39.65,0,*5A
1511838285.9,12564,7.19,72828.8,-9.91,-39.15,-39.47,0,*52
1511838287.19,12565,7.19,72832.0,-9.91,-39.15,-39.29,0,*5B
1511838288.44,12566,7.19,72828.0,-9.91,-39.15,-39.35,0,*55
1511838289.67,12567,7.19,72832.8,-9.91,-39.09,-39.35,0,*59
1511838290.91,12568,7.19,72834.0,-9.89,-39.09,-39.15,0,*5D
1511838292.16,12569,7.19,72832.0,-9.91,-39.15,-39.47,0,*5F
1511838293.42,12570,7.19,72830.3,-9.91,-39.15,-39.35,0,*52
1511838294.68,12571,7.19,72830.0,-9.91,-39.15,-39.35,0,*53
1511838295.91,12572,7.19,72828.3,-9.91,-39.35,-39.65,0,*57
1511838297.15,12573,7.19,72830.3,-9.91,-39.47,-39.65,0,*53
1511838298.43,12574,7.19,72830.8,-9.95,-39.41,-39.59,0,*59
1511838299.7,12575,7.19,72830.8,-9.97,-39.59,-39.71,0,*59
1511838300.98,12576,7.19,72834.5,-9.95,-39.53,-39.71,0,*52
1511838302.27,12577,7.19,72832.3,-9.95,-39.59,-39.79,0,*51
1511838303.53,12578,7.19,72830.5,-9.97,-39.15,-39.23,0,*5B
1511838304.76,12579,7.19,72828.5,-9.97,-38.97,-39.15,0,*54
1511838306.02,12580,7.19,72828.5,-9.97,-39.03,-39.15,0,*5E
1511838307.25,12581,7.19,72828.3,-9.97,-39.15,-39.35,0,*5A
1511838308.51,12582,7.19,72828.8,-9.95,-39.15,-39.35,0,*5B
1511838309.77,12583,7.19,72830.8,-9.97,-39.03,-39.15,0,*5D
1511838311.02,12584,7.19,72828.0,-9.97,-39.03,-39.23,0,*5F
1511838312.28,12585,7.19,72830.8,-9.97,-39.15,-39.53,0,*5E
1511838313.54,12586,7.19,72830.5,-9.97,-39.23,-39.53,0,*58
1511838314.8,12587,7.19,72826.5,-9.97,-39.15,-39.23,0,*5B
1511838316.05,12588,7.19,72832.5,-9.97,-39.23,-39.41,0,*55
1511838317.31,12589,7.19,72830.3,-9.97,-39.15,-39.23,0,*55
1511838318.58,12590,7.19,72834.0,-9.97,-38.79,-38.91,0,*5E
1511838319.79,12591,7.19,72828.8,-9.97,-38.61,-38.61,0,*59
1511838320.99,12592,7.19,72828.3,-9.97,-38.61,-38.73,0,*59
1511838322.2,12593,7.19,72832.3,-9.97,-38.73,-38.73,0,*5B
1511838323.48,12594,7.19,72828.0,-9.95,-38.91,-38.79,0,*58
1511838324.74,12595,7.19,72834.3,-9.97,-38.79,-38.91,0,*5B
1511838325.94,12596,7.19,72830.8,-9.97,-38.97,-38.97,0,*5E
1511838327.17,12597,7.19,72830.5,-9.97,-38.97,-39.15,0,*54
1511838328.37,12598,7.19,72828.5,-9.97,-38.97,-38.97,0,*50
1511838329.61,12599,7.19,72830.0,-9.97,-39.15,-39.35,0,*53
1511838330.86,12600,7.19,72830.5,-9.97,-39.03,-39.23,0,*50
1511838332.14,12601,7.19,72830.0,-9.99,-39.03,-39.03,0,*5D
1511838333.36,12602,7.19,72834.0,-9.95,-38.97,-38.97,0,*52
1511838334.59,12603,7.19,72828.3,-9.97,-38.91,-38.97,0,*57
1511838335.8,12604,7.19,72828.5,-9.97,-38.97,-38.97,0,*56
1511838337.08,12605,7.19,72830.3,-9.99,-39.03,-39.23,0,*5B
1511838338.33,12606,7.19,72828.8,-9.99,-39.03,-38.97,0,*56
1511838339.59,12607,7.19,72828.5,-9.99,-38.79,-38.85,0,*58
1511838340.85,12608,7.19,72830.5,-9.97,-38.91,-38.91,0,*5A
1511838342.11,12609,7.19,72828.8,-9.97,-39.03,-39.15,0,*5C
1511838343.35,12610,7.19,72826.8,-9.99,-38.85,-38.85,0,*5D
1511838344.57,12611,7.19,72828.0,-9.99,-38.97,-38.97,0,*5C
1511838345.83,12612,7.19,72830.8,-9.97,-38.91,-38.79,0,*57
1511838347.1,12613,7.19,72830.5,-9.99,-38.79,-38.85,0,*5D
1511838348.32,12614,7.19,72826.0,-9.99,-38.97,-38.97,0,*59
1511838349.55,12615,7.19,72828.8,-9.99,-38.97,-38.97,0,*58
1511838350.81,12616,7.19,72828.5,-9.99,-38.79,-38.85,0,*58
1511838352.09,12617,7.19,72830.8,-9.99,-38.67,-38.67,0,*5A
1511838353.3,12618,7.19,72828.3,-9.97,-38.55,-38.61,0,*5C
1511838354.51,12619,7.19,72828.0,-9.97,-38.55,-38.61,0,*5D
1511838355.72,12620,7.19,72834.0,-9.97,-38.43,-38.43,0,*50
1511838356.93,12621,7.19,72832.0,-9.97,-38.55,-38.55,0,*51
1511838358.14,12622,7.19,72830.3,-9.97,-38.73,-38.73,0,*52
1511838359.35,12623,7.19,72830.3,-9.97,-38.55,-38.55,0,*53
1511838360.58,12624,7.19,72828.0,-9.95,-38.43,-38.55,0,*51
1511838361.79,12625,7.19,72828.3,-9.97,-38.43,-38.55,0,*52
1511838363.01,12626,7.19,72828.0,-9.97,-38.55,-38.43,0,*51
1511838364.24,12627,7.19,72824.3,-9.95,-38.43,-38.55,0,*52
1511838365.44,12628,7.19,72830.0,-9.97,-38.73,-38.73,0,*58
1511838366.7,12629,7.19,72826.8,-9.95,-38.73,-38.79,0,*51
1511838367.92,12630,7.19,72824.5,-9.95,-38.73,-38.61,0,*50
1511838369.21,12631,7.19,72824.3,-9.95,-38.79,-38.91,0,*54
1511838370.44,12632,7.19,72824.8,-9.91,-38.85,-38.85,0,*55
1511838371.7,12633,7.19,72826.8,-9.97,-38.91,-38.91,0,*52
1511838372.95,12634,7.19,72830.8,-9.95,-38.97,-38.91,0,*51
1511838374.21,12635,7.19,72824.0,-9.97,-39.03,-39.23,0,*56
1511838375.47,12636,7.19,72826.3,-9.97,-39.03,-39.15,0,*50
1511838376.7,12637,7.19,72824.5,-9.97,-39.03,-39.35,0,*53
1511838377.97,12638,7.19,72824.8,-9.95,-39.03,-39.23,0,*59
1511838379.23,12639,7.19,72826.8,-9.97,-39.15,-39.41,0,*59
1511838380.47,12640,7.19,72822.8,-9.99,-39.47,-39.65,0,*58
1511838381.71,12641,7.19,72820.8,-9.99,-39.47,-39.65,0,*59
1511838382.95,12642,7.19,72826.0,-9.99,-39.47,-39.65,0,*5A
1511838384.21,12643,7.19,72820.5,-9.99,-39.41,-39.65,0,*5D
1511838385.45,12644,7.19,72824.0,-10.01,-39.47,-39.79,0,*68
1511838386.72,12645,7.19,72820.3,-9.99,-39.47,-39.59,0,*52
1511838387.96,12646,7.19,72824.0,-10.01,-39.47,-39.59,0,*68
1511838389.2,12647,7.19,72824.0,-10.01,-39.09,-39.29,0,*64
1511838390.45,12648,7.19,72824.3,-10.01,-39.09,-39.29,0,*6B
1511838391.68,12649,7.19,72824.3,-10.01,-39.29,-39.47,0,*60
1511838392.91,12650,7.19,72824.5,-10.01,-39.41,-39.47,0,*66
1511838394.15,12651,7.19,72822.0,-10.01,-39.09,-39.03,0,*6B
1511838395.41,12652,7.19,72824.3,-10.01,-39.03,-39.23,0,*60
1511838396.66,12653,7.19,72822.8,-10.01,-39.09,-39.29,0,*61
1511838397.92,12654,7.19,72822.8,-10.03,-39.09,-39.29,0,*64
1511838399.22,12655,7.19,72822.0,-10.03,-39.15,-39.29,0,*68
1511838400.48,12656,7.19,72822.3,-10.03,-39.15,-39.35,0,*66
1511838401.77,12657,7.19,72822.3,-10.03,-39.15,-39.41,0,*64
1511838403.03,12658,7.19,72820.8,-10.03,-39.15,-39.47,0,*6D
1511838404.26,12659,7.19,72822.5,-10.05,-39.35,-39.41,0,*6E
1511838405.49,12660,7.19,72820.3,-10.05,-39.35,-39.53,0,*67
1511838406.73,12661,7.19,72822.5,-10.05,-39.35,-39.41,0,*65
1511838407.96,12662,7.19,72822.3,-10.05,-39.23,-39.35,0,*62
1511838409.19,12663,7.19,72822.3,-10.05,-39.23,-39.35,0,*63
1511838410.42,12664,7.19,72822.3,-10.05,-39.23,-39.35,0,*64
1511838411.66,12665,7.19,72818.8,-10.05,-39.35,-39.59,0,*68
1511838412.89,12666,7.19,72820.8,-10.05,-39.35,-39.59,0,*6B
1511838414.13,12667,7.19,72824.8,-10.05,-39.35,-39.59,0,*6A
1511838415.4,12668,7.19,72822.8,-10.05,-39.41,-39.71,0,*6C
1511838416.66,12669,7.19,72824.3,-10.07,-39.35,-39.41,0,*6F
1511838417.94,12670,7.19,72820.3,-10.07,-39.23,-39.53,0,*63
1511838419.2,12671,7.19,72822.8,-10.07,-39.35,-39.53,0,*65
1511838420.44,12672,7.19,72824.8,-10.09,-39.35,-39.41,0,*6B
1511838421.71,12673,7.19,72820.0,-10.09,-39.41,-39.71,0,*6A
1511838422.98,12674,7.19,72824.5,-10.09,-39.41,-39.59,0,*67
1511838424.24,12675,7.19,72824.3,-10.09,-39.23,-39.53,0,*68
1511838425.5,12676,7.19,72822.5,-10.09,-39.23,-39.53,0,*6B
1511838426.74,12677,7.19,72822.3,-10.09,-39.23,-39.35,0,*6A
1511838428.03,12678,7.19,72822.8,-10.13,-39.15,-39.23,0,*6C
1511838429.26,12679,7.19,72824.5,-10.15,-39.35,-39.53,0,*6E
1511838430.54,12680,7.19,72826.3,-10.13,-39.23,-39.41,0,*6A
1511838431.82,12681,7.19,72826.8,-10.13,-39.23,-39.41,0,*6B
1511838433.11,12682,7.19,72826.8,-10.13,-39.23,-39.41,0,*68
1511838434.39,12683,7.19,72824.3,-10.13,-39.23,-39.41,0,*69
1511838435.63,12684,7.19,72820.8,-10.15,-39.03,-39.09,0,*66
1511838436.91,12685,7.19,72826.3,-10.13,-39.29,-39.53,0,*66
1511838438.19,12686,7.19,72826.5,-10.13,-39.23,-39.41,0,*6C
1511838439.45,12687,7.19,72820.8,-10.15,-39.29,-39.29,0,*6F
1511838440.74,12688,7.19,72824.0,-10.13,-39.15,-39.03,0,*61
1511838441.98,12689,7.19,72826.0,-10.13,-38.85,-38.85,0,*67
1511838443.19,12690,7.19,72824.0,-10.15,-38.85,-38.85,0,*69
1511838444.43,12691,7.19,72824.5,-10.15,-38.55,-38.67,0,*69
1511838445.71,12692,7.19,72826.3,-10.13,-38.67,-38.67,0,*6D
1511838446.98,12693,7.19,72824.5,-10.13,-38.79,-38.85,0,*6F
1511838448.24,12694,7.19,72822.0,-10.13,-38.67,-38.85,0,*67
1511838449.5,12695,7.19,72822.8,-10.13,-38.79,-38.97,0,*6A
1511838450.79,12696,7.19,72822.0,-10.13,-39.23,-39.41,0,*6D
1511838452.07,12697,7.19,72822.5,-10.13,-39.29,-39.41,0,*66
1511838453.36,12698,7.19,72822.8,-10.13,-39.41,-39.79,0,*6C
1511838454.6,12699,7.19,72826.8,-10.15,-39.53,-39.65,0,*65
1511838455.84,12700,7.19,72824.0,-10.19,-39.47,-39.71,0,*68
1511838457.07,12701,7.19,72828.0,-10.19,-39.35,-39.53,0,*6C
1511838458.28,12702,7.19,72822.8,-10.19,-39.35,-39.47,0,*6A
1511838459.5,12703,7.19,72826.5,-10.19,-39.35,-39.65,0,*6B
1511838460.76,12704,7.19,72826.5,-10.19,-39.23,-39.29,0,*63
1511838461.99,12705,7.19,72824.3,-10.21,-38.97,-39.09,0,*65
1511838463.23,12706,7.19,72824.5,-10.19,-39.23,-39.47,0,*69
1511838464.46,12707,7.19,72820.8,-10.21,-39.35,-39.47,0,*64
1511838465.72,12708,7.19,72822.8,-10.19,-39.23,-39.29,0,*6F
1511838466.95,12709,7.19,72826.0,-10.19,-39.29,-39.47,0,*6C
1511838468.21,12710,7.19,72820.5,-10.21,-39.35,-39.53,0,*67
1511838469.44,12711,7.19,72824.3,-10.19,-39.23,-39.47,0,*6F
1511838470.7,12712,7.19,72826.5,-10.21,-39.35,-39.71,0,*65
1511838472.0,12713,7.19,72824.3,-10.21,-39.41,-39.59,0,*6D
1511838473.26,12714,7.19,72820.8,-10.21,-39.35,-39.71,0,*63
1511838474.55,12715,7.19,72822.3,-10.21,-39.41,-39.59,0,*6B
1511838475.84,12716,7.19,72826.0,-10.21,-39.41,-39.71,0,*62
1511838477.13,12717,7.19,72822.3,-10.21,-39.41,-39.79,0,*6B
1511838478.42,12718,7.19,72824.5,-10.21,-39.41,-39.71,0,*6C
1511838479.72,12719,7.19,72824.0,-10.25,-39.41,-39.59,0,*63
1511838480.99,12720,7.19,72824.0,-10.25,-39.41,-39.65,0,*66
1511838482.19,12721,7.19,72826.5,-10.23,-39.35,-39.35,0,*67
1511838483.48,12722,7.19,72822.8,-10.25,-39.15,-39.15,0,*62
1511838484.71,12723,7.19,72822.5,-10.23,-39.35,-39.53,0,*65
1511838485.96,12724,7.19,72820.0,-10.23,-39.09,-39.15,0,*6F
1511838487.21,12725,7.19,72824.0,-10.25,-38.97,-39.03,0,*69
1511838488.5,12726,7.19,72824.8,-10.25,-39.15,-39.23,0,*63
1511838489.74,12727,7.19,72824.5,-10.23,-39.09,-39.29,0,*63
1511838491.03,12728,7.19,72826.0,-10.25,-39.15,-39.41,0,*69
1511838492.3,12729,7.19,72822.8,-10.25,-38.79,-38.97,0,*69
1511838493.53,12730,7.19,72820.0,-10.23,-38.73,-38.79,0,*6D
1511838494.8,12731,7.19,72822.3,-10.25,-38.67,-38.85,0,*6C
1511838496.04,12732,7.19,72822.8,-10.25,-38.61,-38.85,0,*69
1511838497.3,12733,7.19,72822.5,-10.25,-38.61,-38.79,0,*6B
1511838498.57,12734,7.19,72820.0,-10.25,-38.61,-38.79,0,*6C
1511838499.86,12735,7.19,72822.0,-10.25,-38.79,-38.79,0,*64
1511838501.1,12736,7.19,72822.5,-10.23,-38.61,-38.79,0,*68
1511838502.37,12737,7.19,72820.5,-10.25,-38.61,-38.79,0,*6F
1511838503.59,12738,7.19,72822.0,-10.23,-38.43,-38.55,0,*68